User: anonymous   Login
Location: Althorst
(53.6379°N, 10.7715°E)
Time: 03:29:14
(UTC+00:00)
Language:

Cosmos 2360 Rocket - Orbit

View from above orbital plane
View from above orbital plane
View from above satellite
View from above satellite

Ground track
Ground track

The orbit data is extracted from the following two-line orbital elements,

1 25407U 98045B   20058.48573241 -.00000247 +00000-0 -10128-3 0  9993
2 25407 071.0118 130.8149 0006695 162.8935 197.2415 14.15798831115377
Epoch (UTC): 27 February 2020 11:39:27
Eccentricity: 0.0006695
inclination: 71.0118°
perigee height: 835 km
apogee height: 844 km
right ascension of ascending node: 130.8149°
argument of perigee: 162.8935°
revolutions per day: 14.15798831
mean anomaly at epoch: 197.2415°
orbit number at epoch: 11537

The dashed part of the orbit path shows where the satellite is in the earth's shadow,  

DLR